Location: Unspecified
(0.0000°N, 0.0000°E)
Time: 18:03:39
(UTC+02:00)

Altair - All Passes

Search period start: 29 June 2017 00:00
Search period end: 09 July 2017 00:00
Orbit: 1501 x 1682 km, 47.2° (Epoch: 28 June)

Date Brightness Start Highest point End Pass type
(mag) Time Alt. Az. Time Alt. Az. Time Alt. Az.
29 Jun - 01:18:21 10° WSW 01:26:02 30° NW 01:33:53 10° N visible
29 Jun - 09:58:51 10° N 10:06:37 25° NE 10:14:20 10° E daylight
29 Jun - 12:01:23 10° NW 12:11:30 73° SW 12:21:28 10° SSE daylight
29 Jun - 14:12:16 10° WSW 14:16:40 13° SW 14:21:02 10° SSW daylight
29 Jun - 22:47:37 10° SSW 22:56:23 49° SE 23:05:12 10° ENE visible
30 Jun - 00:52:52 10° WSW 01:00:51 34° NW 01:09:02 10° NNE visible
30 Jun - 09:34:08 10° N 09:41:22 22° NE 09:48:34 10° E daylight
30 Jun - 11:36:08 10° NW 11:46:19 81° SW 11:56:21 10° SE daylight
30 Jun - 13:45:54 10° W 13:51:22 16° SW 13:56:49 10° SSW daylight
30 Jun - 22:22:40 10° SSW 22:31:15 44° SE 22:39:50 10° ENE visible
01 Jul - 00:27:26 10° WSW 00:35:41 38° NW 00:44:07 10° NNE visible
01 Jul - 09:09:29 10° N 09:16:06 19° NE 09:22:40 10° E daylight
01 Jul - 11:10:56 10° NW 11:21:08 89° SW 11:31:13 10° SE daylight
01 Jul - 13:19:47 10° W 13:26:06 18° SW 13:32:22 10° S daylight
01 Jul - 21:57:45 10° SSW 22:06:06 39° SE 22:14:26 10° ENE visible
02 Jul - 00:02:02 10° WSW 00:10:32 43° NW 00:19:11 10° NNE visible
02 Jul - 08:44:58 10° N 08:50:49 17° NE 08:56:39 10° E daylight
02 Jul - 10:45:45 10° NW 10:55:56 83° NE 11:06:02 10° SE daylight
02 Jul - 12:53:50 10° W 13:00:50 21° SW 13:07:47 10° S daylight
02 Jul - 21:32:51 10° SSW 21:40:57 34° SE 21:48:59 10° ENE visible
02 Jul - 23:36:41 10° WSW 23:45:23 48° NW 23:54:13 10° NNE visible
03 Jul - 08:20:37 10° NNE 08:25:31 14° NE 08:30:24 10° ENE daylight
03 Jul - 10:20:37 10° NW 10:30:45 75° NE 10:40:50 10° SE daylight
03 Jul - 12:28:00 10° W 12:35:36 24° SW 12:43:08 10° S daylight
03 Jul - 21:08:01 10° S 21:15:47 30° SE 21:23:29 10° ENE visible
03 Jul - 23:11:23 10° SW 23:20:15 54° NW 23:29:13 10° NNE visible
04 Jul - 07:56:35 10° NNE 08:00:12 12° NE 08:03:49 10° ENE daylight
04 Jul - 09:55:30 10° NNW 10:05:34 68° NE 10:15:35 10° SE daylight
04 Jul - 12:02:17 10° WNW 12:10:21 27° SW 12:18:23 10° S daylight
04 Jul - 20:43:13 10° S 20:50:36 27° SE 20:57:55 10° ENE visible
04 Jul - 22:46:08 10° SW 22:55:07 61° NW 23:04:12 10° NNE visible
05 Jul - 07:33:41 10° NE 07:34:52 10° NE 07:36:02 10° NE visible
05 Jul - 09:30:25 10° NNW 09:40:22 61° NE 09:50:18 10° SE daylight
05 Jul - 11:36:37 10° WNW 11:45:07 30° SW 11:53:35 10° S daylight
05 Jul - 20:18:29 10° S 20:25:25 23° SE 20:32:17 10° E visible
05 Jul - 22:20:54 10° SW 22:29:59 69° NW 22:39:09 10° NNE visible
06 Jul - 00:32:52 10° WNW 00:35:06 11° NW 00:37:22 10° NNW visible
06 Jul - 09:05:23 10° NNW 09:15:10 55° NE 09:24:59 10° SE daylight
06 Jul - 11:11:03 10° WNW 11:19:54 34° SW 11:28:43 10° SSE daylight
06 Jul - 19:53:48 10° S 20:00:13 21° SE 20:06:33 10° E daylight
06 Jul - 21:55:41 10° SW 22:04:52 77° NW 22:14:04 10° NE visible
07 Jul - 00:06:01 10° WNW 00:09:50 13° NW 00:13:41 10° NNW visible
07 Jul - 08:40:22 10° NNW 08:49:58 49° NE 08:59:36 10° ESE daylight
07 Jul - 10:45:32 10° WNW 10:54:41 38° SW 11:03:49 10° SSE daylight
07 Jul - 19:29:13 10° S 19:35:00 18° SE 19:40:43 10° E daylight
07 Jul - 21:30:31 10° SW 21:39:44 85° NW 21:48:57 10° NE visible
07 Jul - 23:39:45 10° WNW 23:44:35 15° NW 23:49:28 10° NNW visible
08 Jul - 08:15:23 10° NNW 08:24:46 44° NE 08:34:11 10° ESE daylight
08 Jul - 10:20:05 10° WNW 10:29:28 43° SW 10:38:52 10° SSE daylight
08 Jul - 19:04:45 10° SSE 19:09:46 16° SE 19:14:43 10° E daylight
08 Jul - 21:05:23 10° SW 21:14:38 86° SE 21:23:50 10° NE visible
08 Jul - 23:13:44 10° W 23:19:22 18° NW 23:25:01 10° N visible
